{"data":{"norad_id":55411,"epoch":"2026-09-20T12:21:19.688544Z","epoch_age_seconds":95378,"freshness":"FRESH","line1":"1 55411U 23014W   26263.51481121  .00000312  00000+0  33908-4 0  9990","line2":"2 55411  69.9976 293.4235 0003440 269.4147  90.6618 14.98331762201238","mean_motion":14.98331762,"eccentricity":0.000344,"inclination_deg":69.9976,"raan_deg":293.4235,"arg_perigee_deg":269.4147,"mean_anomaly_deg":90.6618,"bstar":3.3908e-5,"rev_number":20123,"period_min":96.106886106309,"perigee_km":569.65957763002,"apogee_km":574.44130659019,"semimajor_km":6950.1874421101,"source":"CELESTRAK","updated_at":"2026-09-21T09:00:33.217468Z"}}